Location: Highland Meadows Observing Site
(48.4428°N, 114.5461°W)
Time: 01:41:00
(UTC-06:00)

Amateur Radio Satellites - All Passes

Search period start: 24 October 2017 01:10
Search period end: 25 October 2017 01:10
Location: Highland Meadows Observing Site, 48.4428°N, 114.5461°W

Satellite Date Start Highest point End Downlink Frequencies (MHz)
Time Altitude Azimuth
UNISAT 6 24 Oct 01:15:25 01:18:09 16° 302° (WNW) 01:20:50 437.425
EO-79 24 Oct 01:20:10 01:24:16 44° 99° (E) 01:28:18 145.935-145.965
POLYITAN 1 24 Oct 01:26:03 01:30:13 50° 100° (E) 01:34:20 437.675
RS-15 24 Oct 01:29:17 01:41:29 73° 121° (ESE) 01:53:38 29.354- 29.394
TIGRISAT 24 Oct 01:29:34 01:31:39 13° 304° (NW) 01:33:44 435.000
DX 1 24 Oct 01:32:51 01:36:43 32° 66° (ENE) 01:40:36 434.975-435.025
AIST 2D 24 Oct 01:42:42 01:45:49 31° 290° (WNW) 01:48:55 435.315
NANOSAT C BR1 24 Oct 01:45:32 01:49:48 72° 102° (ESE) 01:54:01 145.865
BUGSAT 1 24 Oct 01:46:06 01:49:05 18° 91° (E) 01:52:02 437.445
QB50P2 24 Oct 01:46:36 01:50:55 90° 177° (S) 01:55:09 145.880/145.840
UKube-1 24 Oct 01:48:18 01:52:04 31° 65° (ENE) 01:55:52 .
DUCHIFAT 1 24 Oct 01:53:54 01:58:11 77° 103° (ESE) 02:02:23 145.980
50 SAT 24 Oct 02:09:54 02:13:10 89° 256° (WSW) 02:16:28 437.505
VELOX 1 24 Oct 02:16:12 02:19:58 28° 265° (W) 02:23:48 145.980
NO-84 24 Oct 02:26:58 02:30:12 21° 130° (SE) 02:33:26 435.350 FM
Oscar 19 24 Oct 02:27:34 02:31:53 27° 94° (E) 02:36:10 437.125/150
SPROUT 24 Oct 02:37:47 02:39:47 13° 272° (W) 02:41:49 437.525
ITUPSAT 1 24 Oct 02:56:03 02:59:55 25° 62° (ENE) 03:03:48 437.325
EO-79 24 Oct 02:56:28 02:59:46 22° 297° (WNW) 03:03:02 145.935-145.965
POLYITAN 1 24 Oct 03:02:34 03:05:40 20° 298° (WNW) 03:08:44 437.675
BEESAT 24 Oct 03:08:17 03:12:29 31° 64° (ENE) 03:16:42 436.000
DX 1 24 Oct 03:09:06 03:12:53 29° 264° (W) 03:16:42 434.975-435.025
BUGSAT 1 24 Oct 03:20:36 03:24:43 49° 289° (WNW) 03:28:44 437.445
NANOSAT C BR1 24 Oct 03:22:35 03:24:59 15° 301° (WNW) 03:27:21 145.865
MOZHAYETS 4 24 Oct 03:23:51 03:28:15 44° 69° (ENE) 03:32:38
UKube-1 24 Oct 03:24:14 03:28:03 31° 264° (W) 03:31:55 .
QB50P2 24 Oct 03:24:17 03:26:02 12° 303° (WNW) 03:27:46 145.880/145.840
DUCHIFAT 1 24 Oct 03:31:04 03:33:16 14° 302° (WNW) 03:35:26 145.980
Gurwin Techsat 1B 24 Oct 03:31:35 03:36:54 67° 102° (ESE) 03:42:12 435.225
RS-15 24 Oct 03:42:54 03:54:52 52° 328° (NNW) 04:06:38 29.354- 29.394
M-CUBED/EXP-1 PRIME 24 Oct 03:45:05 03:48:42 71° 109° (ESE) 03:52:34 437.505
CUBESAT XI-V 24 Oct 03:47:24 03:50:45 20° 61° (ENE) 03:54:06 437.345
NO-84 24 Oct 04:02:54 04:07:13 88° 326° (NNW) 04:11:28 435.350 FM
Oscar 19 24 Oct 04:06:31 04:11:25 47° 292° (WNW) 04:16:17 437.125/150
KKS-1 24 Oct 04:22:41 04:25:10 15° 57° (ENE) 04:27:39 437.445
ITUPSAT 1 24 Oct 04:32:48 04:37:28 49° 260° (W) 04:42:10 437.325
STARS 24 Oct 04:44:57 04:46:01 11° 54° (NE) 04:47:05 437.465
AO-7 24 Oct 04:45:10 04:53:04 45° 99° (E) 05:00:54 .
BEESAT 24 Oct 04:45:45 04:50:10 37° 263° (W) 04:54:38 436.000
ITAMSAT 1 24 Oct 04:48:15 04:53:01 34° 96° (E) 04:57:45 435.822/435.867
MOZHAYETS 4 24 Oct 05:01:49 05:05:34 24° 267° (W) 05:09:21
Gurwin Techsat 1B 24 Oct 05:12:23 05:16:22 22° 302° (WNW) 05:20:22 435.225
O/OREOS (USA 219) 24 Oct 05:19:29 05:23:19 25° 50° (NE) 05:27:07 437.305
M-CUBED/EXP-1 PRIME 24 Oct 05:21:04 05:22:45 13° 305° (NW) 05:24:28 437.505
CUBESAT XI-V 24 Oct 05:23:12 05:27:45 57° 260° (W) 05:32:18 437.345
DOVE 4 24 Oct 05:30:21 05:33:15 15° 88° (E) 05:36:11 437.250
NO-84 24 Oct 05:41:02 05:45:02 36° 348° (NNW) 05:48:52 435.350 FM
KKS-1 24 Oct 05:56:41 06:01:07 79° 255° (WSW) 06:05:37 437.445
RS-15 24 Oct 05:59:46 06:10:51 36° 1° (N) 06:21:34 29.354- 29.394
STARS 24 Oct 06:17:09 06:21:32 73° 73° (ENE) 06:25:59 437.465
STRAND 1 24 Oct 06:22:03 06:24:30 14° 53° (NE) 06:26:58 437.568
ITAMSAT 1 24 Oct 06:27:41 06:32:31 39° 295° (WNW) 06:37:20 435.822/435.867
LilacSat-2 24 Oct 06:35:06 06:36:22 11° 88° (E) 06:37:36 437.200
XW-2D 24 Oct 06:36:34 06:37:47 11° 88° (E) 06:38:58 145.860 - 145.880
AO-7 24 Oct 06:38:01 06:45:58 52° 300° (WNW) 06:53:54 .
XW-2B 24 Oct 06:49:18 06:51:31 15° 90° (E) 06:53:45 145.730 - 145.750
O/OREOS (USA 219) 24 Oct 06:58:32 07:02:59 49° 250° (WSW) 07:07:23 437.305
SO-50 24 Oct 07:05:07 07:09:30 56° 123° (ESE) 07:13:55 436.795
DOVE 4 24 Oct 07:06:26 07:11:29 84° 285° (WNW) 07:16:45 437.250
XW-2C 24 Oct 07:12:03 07:15:16 27° 95° (E) 07:18:29 145.795 - 145.815
NO-84 24 Oct 07:19:17 07:23:10 35° 9° (N) 07:26:50 435.350 FM
CUTE-I 24 Oct 07:27:54 07:32:51 36° 96° (E) 07:37:45 437.470
KAITUO 1B 24 Oct 07:43:18 07:46:51 44° 99° (E) 07:50:23 145.475/437.950
HO-68 24 Oct 07:45:04 07:50:50 25° 91° (E) 07:56:33 435.675
NUDT-PHONESAT 24 Oct 07:50:05 07:53:40 51° 100° (E) 07:57:14 437.300
FO-29 24 Oct 07:50:06 07:53:32 17° 51° (NE) 07:57:10 435.910
XW-2F 24 Oct 07:52:38 07:56:22 74° 102° (ESE) 08:00:05 145.980 - 146.000
STARS 24 Oct 07:56:08 07:58:24 14° 271° (W) 08:00:40 437.465
STRAND 1 24 Oct 07:57:42 08:02:49 74° 72° (ENE) 08:08:00 437.568
SEEDS 24 Oct 08:01:28 08:03:53 15° 89° (E) 08:06:19 437.485
CUTE 1.7 + AOD 2 24 Oct 08:02:13 08:05:39 24° 93° (E) 08:09:03 437.475
LilacSat-2 24 Oct 08:07:19 08:11:04 65° 286° (WNW) 08:14:47 437.200
XW-2D 24 Oct 08:08:39 08:12:22 65° 286° (WNW) 08:16:05 145.860 - 145.880
CUBEBUG 2 24 Oct 08:12:16 08:15:40 20° 90° (E) 08:18:59 437.445
RS-15 24 Oct 08:14:50 08:26:42 53° 34° (NNE) 08:37:56 29.354- 29.394
XW-2B 24 Oct 08:22:21 08:25:59 47° 288° (WNW) 08:29:35 145.730 - 145.750
PCSat 24 Oct 08:26:49 08:32:02 51° 117° (ESE) 08:37:17 145.827
AO-7 24 Oct 08:32:15 08:36:55 17° 324° (NW) 08:41:36 .
UWE-3 24 Oct 08:40:57 08:44:27 22° 91° (E) 08:47:51 435.000/436.395/437.385
DOVE 4 24 Oct 08:45:42 08:48:29 15° 303° (WNW) 08:51:18 437.250
XW-2C 24 Oct 08:46:14 08:49:25 26° 293° (WNW) 08:52:34 145.795 - 145.815
SO-50 24 Oct 08:46:19 08:50:14 28° 324° (NW) 08:54:10 436.795
NO-84 24 Oct 08:56:54 09:00:59 83° 27° (NNE) 09:04:46 435.350 FM
YUBILEINY 24 Oct 09:04:10 09:11:36 34° 82° (E) 09:19:06 435.215
UNISAT 6 24 Oct 09:04:57 09:07:45 16° 58° (ENE) 09:10:31 437.425
CUTE-I 24 Oct 09:07:58 09:12:55 38° 295° (WNW) 09:17:50 437.470
TIGRISAT 24 Oct 09:17:55 09:21:09 19° 60° (ENE) 09:24:25 435.000
KAITUO 1B 24 Oct 09:18:06 09:20:32 17° 297° (WNW) 09:22:57 145.475/437.950
AO-73 24 Oct 09:19:37 09:23:15 25° 93° (E) 09:26:46 145.935
NUDT-PHONESAT 24 Oct 09:25:01 09:27:09 15° 298° (WNW) 09:29:16 437.300
XW-2F 24 Oct 09:28:38 09:29:57 12° 300° (WNW) 09:31:14 145.980 - 146.000
nSIGHT-1 24 Oct 09:30:16 09:32:50 23° 142° (SE) 09:35:26 .
HO-68 24 Oct 09:32:02 09:39:14 75° 291° (WNW) 09:46:25 435.675
FO-29 24 Oct 09:32:18 09:37:39 86° 74° (ENE) 09:43:38 435.910
SEEDS 24 Oct 09:35:50 09:39:57 60° 288° (WNW) 09:44:04 437.485
CUTE 1.7 + AOD 2 24 Oct 09:37:42 09:41:35 37° 291° (WNW) 09:45:28 437.475
STRAND 1 24 Oct 09:39:18 09:42:35 17° 271° (W) 09:45:53 437.568
ZACube-1 24 Oct 09:44:05 09:48:21 50° 99° (E) 09:52:29 437.345
AAUSAT CUBESAT 2 24 Oct 09:45:58 09:50:08 82° 103° (ESE) 09:54:16 437.432
XW-2A 24 Oct 09:47:40 09:50:59 61° 286° (WNW) 09:54:16 145.665 - 145.685
CUBEBUG 2 24 Oct 09:48:06 09:52:37 52° 289° (WNW) 09:56:58 437.445
PCSat 24 Oct 10:10:42 10:15:39 35° 318° (NW) 10:20:37 145.827
Oscar 11 24 Oct 10:12:46 10:17:03 61° 101° (E) 10:21:17 .
ISS 24 Oct 10:13:57 10:17:03 43° 148° (SSE) 10:20:10 437.550
UWE-3 24 Oct 10:16:51 10:21:08 44° 290° (WNW) 10:25:17 435.000/436.395/437.385
PRISM 24 Oct 10:22:02 10:25:38 32° 67° (ENE) 10:29:16 437.425
RS-15 24 Oct 10:27:58 10:39:45 67° 241° (WSW) 10:50:54 29.354- 29.394
SO-50 24 Oct 10:30:28 10:32:11 12° 348° (NNW) 10:33:52 436.795
Max Valier Satellite 24 Oct 10:30:43 10:32:53 15° 90° (E) 10:35:03 145.860
DELFI C3 24 Oct 10:32:30 10:35:42 23° 93° (E) 10:38:54 145.870
NO-84 24 Oct 10:35:05 10:37:53 19° 231° (SW) 10:40:32 435.350 FM
UNISAT 6 24 Oct 10:39:08 10:43:49 81° 257° (WSW) 10:48:35 437.425
AIST 2D 24 Oct 10:48:28 10:50:19 14° 63° (ENE) 10:52:10 435.315
TIGRISAT 24 Oct 10:52:42 10:57:21 66° 259° (WSW) 11:02:04 435.000
AO-73 24 Oct 10:55:35 10:59:35 36° 292° (WNW) 11:03:27 145.935
YUBILEINY 24 Oct 10:59:15 11:07:52 64° 285° (WNW) 11:16:34 435.215
nSIGHT-1 24 Oct 11:05:39 11:08:50 80° 339° (NNW) 11:12:03 .
NANOSAT C BR1 24 Oct 11:08:23 11:09:52 12° 56° (ENE) 11:11:21 145.865
QB50P2 24 Oct 11:09:00 11:11:18 14° 58° (ENE) 11:13:36 145.880/145.840
DUCHIFAT 1 24 Oct 11:16:13 11:17:56 12° 57° (ENE) 11:19:39 145.980
FO-29 24 Oct 11:20:46 11:23:48 15° 276° (W) 11:26:58 435.910
HO-68 24 Oct 11:21:01 11:25:53 20° 312° (NW) 11:30:44 435.675
ZACube-1 24 Oct 11:21:05 11:24:17 20° 298° (WNW) 11:27:25 437.345
AAUSAT CUBESAT 2 24 Oct 11:23:11 11:24:58 13° 302° (WNW) 11:26:46 437.432
EO-88 24 Oct 11:42:54 11:46:32 73° 101° (E) 11:50:09 145.990 - 145.960
Oscar 11 24 Oct 11:49:57 11:52:45 17° 299° (WNW) 11:55:32 .
ISS 24 Oct 11:50:17 11:53:30 56° 347° (NNW) 11:56:44 437.550
BEESAT 3 24 Oct 11:50:47 11:54:20 31° 118° (ESE) 11:57:55 437.485
PRISM 24 Oct 11:57:29 12:00:56 26° 265° (W) 12:04:24 437.425
PCSat 24 Oct 11:58:09 12:00:44 13° 342° (NNW) 12:03:18 145.827
Max Valier Satellite 24 Oct 12:03:26 12:06:59 46° 288° (WNW) 12:10:29 145.860
DELFI C3 24 Oct 12:06:54 12:10:32 35° 291° (WNW) 12:14:09 145.870
SO-50 24 Oct 12:12:54 12:14:39 12° 13° (NNE) 12:16:26 436.795
Oscar 19 24 Oct 12:13:34 12:14:33 11° 50° (NE) 12:15:31 437.125/150
EO-79 24 Oct 12:15:37 12:19:47 52° 71° (ENE) 12:23:58 145.935-145.965
LO-87 24 Oct 12:17:54 12:20:59 25° 95° (E) 12:24:02 145.935 - 145.965
AIST 2D 24 Oct 12:19:43 12:23:07 50° 260° (W) 12:26:32 435.315
UNISAT 6 24 Oct 12:20:15 12:21:17 11° 275° (W) 12:22:19 437.425
POLYITAN 1 24 Oct 12:21:37 12:25:50 60° 72° (ENE) 12:30:06 437.675
AO-85 24 Oct 12:28:41 12:30:57 15° 112° (ESE) 12:33:15 145.980
BUGSAT 1 24 Oct 12:39:01 12:42:18 22° 63° (ENE) 12:45:37 437.445
NANOSAT C BR1 24 Oct 12:40:36 12:44:52 84° 74° (ENE) 12:49:09 145.865
QB50P2 24 Oct 12:42:14 12:46:31 77° 257° (WSW) 12:50:50 145.880/145.840
nSIGHT-1 24 Oct 12:42:15 12:45:21 44° 360° (N) 12:48:27 .
RS-15 24 Oct 12:42:55 12:49:36 17° 266° (W) 12:56:08 29.354- 29.394
DUCHIFAT 1 24 Oct 12:48:40 12:52:56 89° 64° (ENE) 12:57:13 145.980
ESTCUBE 1 24 Oct 12:55:59 13:00:21 47° 99° (E) 13:04:40 437.505/2401.250
YUBILEINY 24 Oct 13:01:35 13:06:48 17° 310° (NW) 13:12:04 435.215
M-CUBED/EXP-1 PRIME 24 Oct 13:01:56 13:03:57 16° 57° (ENE) 13:05:58 437.505
Gurwin Techsat 1B 24 Oct 13:17:59 13:22:16 26° 60° (ENE) 13:26:34 435.225
EO-88 24 Oct 13:18:32 13:19:39 11° 300° (WNW) 13:20:46 145.990 - 145.960
BEESAT 2 24 Oct 13:21:57 13:25:58 78° 126° (SE) 13:30:03 435.950
ISS 24 Oct 13:27:05 13:30:16 49° 7° (N) 13:33:28 437.550
BEESAT 3 24 Oct 13:28:04 13:31:49 36° 317° (NW) 13:35:35 437.485
PCSat 24 Oct 13:45:08 13:46:42 11° 9° (N) 13:48:15 145.827
Oscar 19 24 Oct 13:47:46 13:52:49 57° 69° (ENE) 13:57:52 437.125/150
LO-87 24 Oct 13:51:16 13:54:21 26° 293° (WNW) 13:57:24 145.935 - 145.965
SO-50 24 Oct 13:52:35 13:56:36 29° 36° (NE) 14:00:38 436.795
EO-79 24 Oct 13:52:55 13:55:51 18° 269° (W) 13:58:47 145.935-145.965
AO-7 24 Oct 13:58:22 14:04:37 25° 45° (NE) 14:10:52 .
POLYITAN 1 24 Oct 13:59:24 14:02:01 16° 270° (W) 14:04:38 437.675
VELOX 1 24 Oct 14:01:28 14:05:40 40° 98° (E) 14:09:52 145.980
AO-85 24 Oct 14:06:56 14:10:48 65° 311° (NW) 14:14:51 145.980
BUGSAT 1 24 Oct 14:13:23 14:17:24 43° 261° (W) 14:21:29 437.445
SPROUT 24 Oct 14:16:34 14:20:54 84° 100° (E) 14:25:12 437.525
nSIGHT-1 24 Oct 14:18:40 14:21:52 78° 19° (NNE) 14:25:04 .
NANOSAT C BR1 24 Oct 14:19:54 14:21:10 11° 273° (W) 14:22:26 145.865
DUCHIFAT 1 24 Oct 14:28:33 14:29:13 10° 274° (W) 14:29:53 145.980
ESTCUBE 1 24 Oct 14:33:23 14:36:52 23° 298° (WNW) 14:40:21 437.505/2401.250
ITAMSAT 1 24 Oct 14:33:42 14:36:19 14° 53° (NE) 14:38:56 435.822/435.867
M-CUBED/EXP-1 PRIME 24 Oct 14:35:02 14:38:09 39° 255° (WSW) 14:41:15 437.505
DX 1 24 Oct 14:52:46 14:56:47 35° 97° (E) 15:00:48 434.975-435.025
Gurwin Techsat 1B 24 Oct 14:56:41 15:01:53 56° 259° (W) 15:07:08 435.225
50 SAT 24 Oct 14:57:05 15:00:17 44° 100° (E) 15:03:27 437.505
BEESAT 2 24 Oct 15:01:07 15:04:10 20° 327° (NNW) 15:07:16 435.950
ISS 24 Oct 15:03:37 15:06:51 63° 207° (SSW) 15:10:05 437.550
UKube-1 24 Oct 15:06:53 15:10:46 31° 97° (E) 15:14:38 .
BEESAT 3 24 Oct 15:09:13 15:10:29 11° 339° (NNW) 15:11:45 437.485
PCSat 24 Oct 15:27:52 15:32:12 23° 35° (NE) 15:36:31 145.827
Oscar 19 24 Oct 15:28:30 15:32:29 22° 268° (W) 15:36:29 437.125/150
SO-50 24 Oct 15:32:49 15:37:21 57° 236° (SW) 15:41:55 436.795
VELOX 1 24 Oct 15:38:17 15:41:56 26° 296° (WNW) 15:45:36 145.980
AO-7 24 Oct 15:47:59 15:56:16 81° 68° (ENE) 16:04:35 .
AO-85 24 Oct 15:49:36 15:52:01 15° 334° (NNW) 15:54:31 145.980
SPROUT 24 Oct 15:54:07 15:56:11 13° 302° (WNW) 15:58:13 437.525
nSIGHT-1 24 Oct 15:55:16 15:57:54 23° 218° (SW) 16:00:31 .
ITAMSAT 1 24 Oct 16:09:44 16:14:55 75° 72° (ENE) 16:20:09 435.822/435.867
DX 1 24 Oct 16:29:07 16:32:53 28° 295° (WNW) 16:36:37 434.975-435.025
ITUPSAT 1 24 Oct 16:29:27 16:33:44 31° 96° (E) 16:37:59 437.325
50 SAT 24 Oct 16:30:28 16:32:14 14° 297° (WNW) 16:33:59 437.505
DOVE 4 24 Oct 16:39:43 16:42:48 19° 60° (ENE) 16:46:00 437.250
ISS 24 Oct 16:41:19 16:42:48 13° 225° (SW) 16:44:18 437.550
BEESAT 24 Oct 16:41:31 16:46:03 41° 98° (E) 16:50:33 436.000
UKube-1 24 Oct 16:42:56 16:46:45 30° 294° (WNW) 16:50:32 .
MOZHAYETS 4 24 Oct 16:51:44 16:56:17 61° 101° (E) 17:00:47
PCSat 24 Oct 17:10:52 17:16:20 89° 227° (SW) 17:21:45 145.827
CUBESAT XI-V 24 Oct 17:16:02 17:19:57 27° 94° (E) 17:23:50 437.345
CUTE-I 24 Oct 17:16:26 17:19:25 15° 54° (NE) 17:22:26 437.470
LilacSat-2 24 Oct 17:21:07 17:22:18 11° 59° (ENE) 17:23:29 437.200
XW-2D 24 Oct 17:22:00 17:23:02 11° 59° (ENE) 17:24:03 145.860 - 145.880
XW-2B 24 Oct 17:34:30 17:36:32 14° 61° (ENE) 17:38:34 145.730 - 145.750
AO-7 24 Oct 17:43:16 17:49:55 26° 268° (W) 17:56:37 .
KKS-1 24 Oct 17:44:57 17:47:36 15° 90° (E) 17:50:13 437.445
ITAMSAT 1 24 Oct 17:51:39 17:54:58 17° 271° (W) 17:58:19 435.822/435.867
XW-2C 24 Oct 17:56:51 17:59:54 23° 66° (ENE) 18:02:57 145.795 - 145.815
ITUPSAT 1 24 Oct 18:07:13 18:11:35 36° 294° (WNW) 18:15:56 437.325
DOVE 4 24 Oct 18:15:52 18:20:04 55° 261° (W) 18:24:32 437.250
HO-68 24 Oct 18:18:00 18:23:59 30° 55° (NE) 18:30:00 435.675
BEESAT 24 Oct 18:19:36 18:23:40 28° 297° (WNW) 18:27:42 436.000
KAITUO 1B 24 Oct 18:26:29 18:29:54 35° 70° (ENE) 18:33:18 145.475/437.950
BEESAT 3 24 Oct 18:26:50 18:29:12 15° 28° (NNE) 18:31:32 437.485
MOZHAYETS 4 24 Oct 18:29:49 18:33:00 19° 300° (WNW) 18:36:11
NUDT-PHONESAT 24 Oct 18:32:19 18:35:46 39° 71° (ENE) 18:39:15 437.300
XW-2F 24 Oct 18:36:30 18:40:12 58° 73° (ENE) 18:43:54 145.980 - 146.000
LilacSat-2 24 Oct 18:52:10 18:56:00 80° 257° (WSW) 18:59:49 437.200
XW-2D 24 Oct 18:52:50 18:56:37 82° 258° (WSW) 19:00:24 145.860 - 145.880
CUBESAT XI-V 24 Oct 18:53:08 18:57:24 39° 292° (WNW) 19:01:41 437.345
CUTE-I 24 Oct 18:53:20 18:58:40 81° 73° (ENE) 19:04:02 437.470
PCSat 24 Oct 18:55:49 18:58:57 16° 256° (WSW) 19:02:05 145.827
SEEDS 24 Oct 18:56:38 18:59:26 18° 62° (ENE) 19:02:13 437.485
CUTE 1.7 + AOD 2 24 Oct 18:58:16 19:01:50 27° 66° (ENE) 19:05:24 437.475
XW-2B 24 Oct 19:06:32 19:10:16 59° 259° (W) 19:14:01 145.730 - 145.750
AAUSAT CUBESAT 2 24 Oct 19:07:25 19:08:28 11° 57° (ENE) 19:09:31 437.432
YUBILEINY 24 Oct 19:08:31 19:14:58 22° 55° (NE) 19:21:23 435.215
CUBEBUG 2 24 Oct 19:13:16 19:17:14 27° 64° (ENE) 19:21:15 437.445
AO-85 24 Oct 19:14:08 19:16:34 14° 25° (NNE) 19:19:06 145.980
KKS-1 24 Oct 19:20:08 19:24:37 67° 288° (WNW) 19:29:04 437.445
XW-2C 24 Oct 19:30:33 19:33:57 31° 264° (W) 19:37:22 145.795 - 145.815
O/OREOS (USA 219) 24 Oct 19:38:10 19:39:54 12° 97° (E) 19:41:40 437.305
STARS 24 Oct 19:38:44 19:43:13 83° 104° (ESE) 19:47:40 437.465
Oscar 11 24 Oct 19:38:59 19:39:39 10° 56° (NE) 19:40:20 .
UWE-3 24 Oct 19:40:49 19:44:51 30° 66° (ENE) 19:48:54 435.000/436.395/437.385
BEESAT 2 24 Oct 19:58:49 20:02:16 26° 37° (NE) 20:05:40 435.950
KAITUO 1B 24 Oct 20:01:14 20:04:00 20° 267° (W) 20:06:46 145.475/437.950
BEESAT 3 24 Oct 20:03:32 20:07:31 64° 49° (NE) 20:11:25 437.485
HO-68 24 Oct 20:04:02 20:11:11 71° 256° (WSW) 20:18:24 435.675
STRAND 1 24 Oct 20:05:15 20:08:54 19° 90° (E) 20:12:33 437.568
NUDT-PHONESAT 24 Oct 20:07:14 20:09:48 18° 268° (W) 20:12:23 437.300
XW-2F 24 Oct 20:12:59 20:14:40 13° 271° (W) 20:16:22 145.980 - 146.000
AO-73 24 Oct 20:18:00 20:22:05 33° 67° (ENE) 20:26:08 145.935
XW-2A 24 Oct 20:21:39 20:25:02 75° 75° (ENE) 20:28:27 145.665 - 145.685
SEEDS 24 Oct 20:30:39 20:34:44 54° 260° (W) 20:38:50 437.485
CUTE 1.7 + AOD 2 24 Oct 20:33:45 20:37:35 33° 264° (W) 20:41:24 437.475
CUTE-I 24 Oct 20:36:09 20:39:22 16° 272° (W) 20:42:37 437.470
FO-29 24 Oct 20:38:20 20:41:16 13° 82° (E) 20:44:15 435.910
AAUSAT CUBESAT 2 24 Oct 20:39:08 20:43:14 85° 76° (ENE) 20:47:22 437.432
ZACube-1 24 Oct 20:42:39 20:47:10 62° 73° (ENE) 20:51:40 437.345
CUBEBUG 2 24 Oct 20:49:09 20:53:39 42° 263° (W) 20:58:12 437.445
AO-85 24 Oct 20:53:37 20:57:56 49° 46° (NE) 21:02:36 145.980
KKS-1 24 Oct 20:59:38 21:00:18 10° 307° (NW) 21:00:59 437.445
YUBILEINY 24 Oct 21:04:29 21:13:21 80° 80° (E) 21:22:13 435.215
Oscar 11 24 Oct 21:10:41 21:15:00 73° 75° (ENE) 21:19:20 .
Max Valier Satellite 24 Oct 21:13:36 21:15:25 13° 61° (ENE) 21:17:14 145.860
O/OREOS (USA 219) 24 Oct 21:13:59 21:18:34 88° 292° (WNW) 21:23:13 437.305
STARS 24 Oct 21:16:34 21:18:56 14° 303° (WNW) 21:21:18 437.465
UWE-3 24 Oct 21:16:51 21:21:11 37° 264° (W) 21:25:33 435.000/436.395/437.385
DELFI C3 24 Oct 21:21:21 21:24:24 22° 65° (ENE) 21:27:28 145.870
BEESAT 2 24 Oct 21:36:17 21:40:14 51° 238° (WSW) 21:44:07 435.950
BEESAT 3 24 Oct 21:42:09 21:44:36 16° 248° (WSW) 21:47:01 437.485
STRAND 1 24 Oct 21:43:25 21:48:34 66° 289° (WNW) 21:53:39 437.568
AO-73 24 Oct 21:54:13 21:58:17 31° 265° (W) 22:02:20 145.935
HO-68 24 Oct 21:56:37 22:00:13 14° 276° (W) 22:03:51 435.675
AAUSAT CUBESAT 2 24 Oct 22:18:52 22:19:17 10° 274° (W) 22:19:42 437.432
FO-29 24 Oct 22:20:30 22:27:29 61° 101° (E) 22:35:06 435.910
ZACube-1 24 Oct 22:20:50 22:23:50 17° 271° (W) 22:26:50 437.345
EO-88 24 Oct 22:23:36 22:27:09 52° 73° (ENE) 22:30:43 145.990 - 145.960
ESTCUBE 1 24 Oct 22:26:45 22:27:14 10° 54° (NE) 22:27:45 437.505/2401.250
UNISAT 6 24 Oct 22:28:09 22:31:10 17° 89° (E) 22:34:09 437.425
AO-85 24 Oct 22:34:18 22:38:12 28° 243° (WSW) 22:42:21 145.980
TIGRISAT 24 Oct 22:41:11 22:44:39 21° 91° (E) 22:48:03 435.000
Max Valier Satellite 24 Oct 22:45:05 22:48:47 62° 259° (W) 22:52:30 145.860
Oscar 11 24 Oct 22:49:37 22:51:39 13° 272° (W) 22:53:43 .
RS-15 24 Oct 22:49:56 22:55:55 15° 92° (E) 23:01:52 29.354- 29.394
DELFI C3 24 Oct 22:55:20 22:58:57 36° 263° (W) 23:02:37 145.870
O/OREOS (USA 219) 24 Oct 22:55:53 22:58:43 16° 317° (NW) 23:01:33 437.305
LO-87 24 Oct 22:57:35 23:00:15 20° 65° (ENE) 23:02:55 145.935 - 145.965
YUBILEINY 24 Oct 23:02:24 23:09:12 26° 281° (WNW) 23:16:01 435.215
STRAND 1 24 Oct 23:24:49 23:26:47 12° 308° (NW) 23:28:44 437.568
PRISM 24 Oct 23:34:11 23:37:52 30° 96° (E) 23:41:32 437.425
SPROUT 24 Oct 23:39:48 23:41:57 14° 58° (ENE) 23:44:05 437.525
ESTCUBE 1 24 Oct 23:58:44 00:03:12 68° 73° (ENE) 00:07:40 437.505/2401.250
EO-88 24 Oct 23:59:20 00:01:07 13° 270° (W) 00:02:55 145.990 - 145.960
UNISAT 6 25 Oct 00:03:46 00:08:19 60° 288° (WNW) 00:12:44 437.425
FO-29 25 Oct 00:06:06 00:12:14 35° 298° (WNW) 00:18:53 435.910
TIGRISAT 25 Oct 00:17:11 00:21:37 49° 290° (WNW) 00:25:56 435.000
NANOSAT C BR1 25 Oct 00:23:47 00:24:31 10° 86° (E) 00:25:16 145.865
QB50P2 25 Oct 00:24:44 00:26:55 14° 89° (E) 00:29:04 145.880/145.840
LO-87 25 Oct 00:30:05 00:33:26 35° 263° (W) 00:36:49 145.935 - 145.965
DUCHIFAT 1 25 Oct 00:31:07 00:32:18 11° 87° (E) 00:33:28 145.980
VELOX 1 25 Oct 01:01:54 01:06:11 56° 71° (ENE) 01:10:31 145.980
